Hourly Weather Roundup
Issued by NWS Central Illinois

Home | Current Version | Previous Version | Text Only | Print | Product List | Glossary On
Versions: 1 2 3 4 5 6 7 8 9 10 11 12 13 14 15 16 17 18 19 20 21 22 23 24 25 26 27 28 29 30 31 32 33 34 35 36 37 38 39 40 41 42 43 44 45 46 47 48 49 50
000
NZUS43 KILX 250610
HWRILX

AREA WEATHER ROUNDUP
NATIONAL WEATHER SERVICE, LINCOLN IL
100 AM CDT SAT APR 25 2015


CITY           SKY/WX    TMP DP  RH WIND       PRES   REMARKS
BLOOMINGTON    CLOUDY    53  40  61 SE8       29.79F
6HR MIN TEMP:  53; 6HR MAX TEMP:  58;

CHAMPAIGN      CLOUDY    52  42  69 E8        29.81F
6HR MIN TEMP:  51; 6HR MAX TEMP:  59; 6HR PCP: TRACE;

DECATUR        CLOUDY    54  40  59 E8        29.77F
6HR MIN TEMP:  53; 6HR MAX TEMP:  58; 6HR PCP: TRACE;

EFFINGHAM      CLOUDY    54  40  60 E7        29.79F
FLORA          CLOUDY    55  43  64 SE8       29.78F
6HR MIN TEMP:  55; 6HR MAX TEMP:  59;

GALESBURG      HVY RAIN  49  43  78 E7        29.74S
JACKSONVILLE   LGT RAIN  54  48  82 SE8       29.72F
6HR MIN TEMP:  54; 6HR MAX TEMP:  62;

LACON          CLOUDY    46  37  71 E16G23    29.77F
6HR MIN TEMP:  46; 6HR MAX TEMP:  59; 6HR PCP:  0.03;

LAWRENCEVILLE  CLOUDY    55  43  63 SE8       29.81F
6HR MIN TEMP:  54; 6HR MAX TEMP:  61; 6HR PCP: TRACE;

LITCHFIELD     CLOUDY    53  42  65 SE14      29.74S
$$


CITY           SKY/WX    TMP DP  RH WIND       PRES   REMARKS
LINCOLN        LGT RAIN  54  40  57 E6        29.75F
6HR MIN TEMP:  54; 6HR MAX TEMP:  59;

MACOMB         CLOUDY    55  43  64 SE9       29.73F
MATTOON        CLOUDY    55  38  52 SE9       29.78F
6HR MIN TEMP:  55; 6HR MAX TEMP:  57; 6HR PCP: TRACE;

MT CARMEL AP   CLOUDY    57  41  54 SE7       29.80F
OLNEY-NOBLE AP CLOUDY    54  41  62 SE8       29.78F
PARIS          CLOUDY    53  42  68 E6        29.83F
6HR MIN TEMP:  52; 6HR MAX TEMP:  57;

PEORIA         CLOUDY    55  41  59 E6        29.76F
6HR MIN TEMP:  55; 6HR MAX TEMP:  61; 6HR PCP:  0.02;

PONTIAC        CLOUDY    48  38  67 E17       29.80F
RANTOUL        CLOUDY    54  41  62 E5        29.82S
6HR MIN TEMP:  53; 6HR MAX TEMP:  60;

ROBINSON       CLOUDY    55  42  62 SE8       29.81F
6HR MIN TEMP:  55; 6HR MAX TEMP:  60;

SPRINGFIELD    CLOUDY    56  42  59 SE9       29.74F
6HR MIN TEMP:  56; 6HR MAX TEMP:  60; 6HR PCP: TRACE;

TAYLORVILLE    CLOUDY    54  39  58 SE8       29.75F
$$

...REGIONAL REPORTS...


CITY           SKY/WX    TMP DP  RH WIND       PRES   REMARKS
CHICAGO O`HARE CLOUDY    41  37  86 NE13      29.89F WCI  34
KANKAKEE       CLOUDY    47  38  72 E7        29.85F
MOLINE         LGT RAIN  45  39  79 E16       29.75F
MOUNT VERNON   CLOUDY    55  39  54 SE5       29.78F
PITTSFIELD     FAIR      54  46  74 SE10      29.72F
QUINCY         MOCLDY    53  48  83 SE9       29.67F
ROCKFORD       CLOUDY    42  35  76 E16G26    29.87F WCI  34
$$


CITY           SKY/WX    TMP DP  RH WIND       PRES   REMARKS
BURLINGTON     MOCLDY    54  38  54 E9        29.69F
CEDAR RAPIDS   CLOUDY    44  50 100 E17       29.70F HAZE
DES MOINES     CLOUDY    50  44  80 E12       29.64R
KIRKSVILLE     CLOUDY    56  50  80 SE9       29.64R
OTTUMWA        CLOUDY    52  43  71 E12       29.65S
ST LOUIS       CLOUDY    56  45  66 SE9       29.74R
$$


CITY           SKY/WX    TMP DP  RH WIND       PRES   REMARKS
TERRE HAUTE    CLOUDY    53  43  68 E5        29.84R
EVANSVILLE     CLOUDY    57  40  52 E3        29.81F
INDIANAPOLIS   CLOUDY    55  36  48 E6        29.85F
LAFAYETTE      CLOUDY    51  39  63 NE7       29.85S
MADISON        CLOUDY    40  34  79 E14G26    29.91F WCI  32
MILWAUKEE      CLOUDY    38  32  79 NE8       29.96F WCI  32
$$




USA.gov is the U.S. government's official web portal to all federal, state and local government web resources and services.